GFSNW_prec_precacc12_216.txt.gz
Total_Precipitation_Accumulation
0.04 0.05 0.04 0.04 0.10 0.12 0.05 0.02 0.02 0.01 0.07 0.05 0.04 0.06 0.01 0.00 0.01 0.04 0.11 0.11 0.15 0.19 0.33 0.22 0.21 0.16 0.10 0.09 0.11 0.12 0.16 0.40 0.30 0.25 0.26 0.32 0.46 0.61 0.84 1.09 0.89 0.66 0.54 0.46
0.05 0.05 0.05 0.05 0.10 0.17 0.03 0.05 0.01 0.01 0.11 0.08 0.03 0.00 0.00 0.01 0.00 0.00 0.02 0.04 0.12 0.22 0.29 0.10 0.10 0.21 0.13 0.12 0.17 0.18 0.17 0.19 0.19 0.08 0.04 0.08 0.15 0.19 0.25 0.41 0.53 0.40 0.38 0.22
0.03 0.04 0.06 0.07 0.08 0.24 0.13 0.08 0.05 0.00 0.03 0.06 0.10 0.08 0.03 0.01 0.02 0.04 0.06 0.03 0.05 0.04 0.03 0.07 0.05 0.02 0.06 0.06 0.07 0.17 0.25 0.31 0.19 0.11 0.07 0.06 0.05 0.07 0.17 0.22 0.22 0.17 0.14 0.05
0.01 0.02 0.02 0.04 0.11 0.30 0.37 0.36 0.14 0.02 0.04 0.03 0.04 0.08 0.09 0.07 0.07 0.08 0.12 0.09 0.06 0.03 0.01 0.01 0.02 0.02 0.01 0.00 0.00 0.05 0.14 0.15 0.10 0.04 0.03 0.02 0.01 0.01 0.05 0.08 0.03 0.05 0.01 0.00
0.01 0.02 0.05 0.07 0.22 0.29 0.38 0.39 0.14 0.06 0.02 0.02 0.07 0.12 0.08 0.03 0.03 0.03 0.01 0.05 0.06 0.02 0.02 0.01 0.01 0.00 0.00 0.00 0.00 0.01 0.04 0.03 0.02 0.02 0.00 0.00 0.02 0.01 0.00 0.00 0.00 0.00 0.00 0.00
0.02 0.03 0.05 0.06 0.17 0.29 0.29 0.28 0.17 0.17 0.09 0.02 0.05 0.04 0.03 0.03 0.05 0.03 0.02 0.02 0.02 0.00 0.00 0.00 0.00 0.00 0.00 0.00 0.00 0.00 0.01 0.01 0.04 0.02 0.01 0.03 0.05 0.00 0.00 0.00 0.00 0.00 0.00 0.00
0.02 0.03 0.03 0.05 0.10 0.30 0.16 0.10 0.15 0.36 0.18 0.03 0.02 0.02 0.03 0.02 0.04 0.04 0.00 0.00 0.00 0.00 0.01 0.02 0.01 0.01 0.00 0.00 0.00 0.00 0.00 0.02 0.09 0.07 0.06 0.07 0.01 0.00 0.00 0.00 0.00 0.00 0.00 0.00
0.01 0.02 0.02 0.05 0.11 0.25 0.31 0.18 0.28 0.49 0.27 0.04 0.02 0.03 0.06 0.04 0.03 0.04 0.01 0.01 0.01 0.02 0.03 0.02 0.02 0.00 0.00 0.00 0.00 0.00 0.00 0.02 0.08 0.08 0.06 0.02 0.00 0.00 0.00 0.00 0.00 0.00 0.00 0.00
0.01 0.01 0.02 0.04 0.07 0.14 0.23 0.22 0.24 0.68 0.58 0.18 0.06 0.10 0.07 0.03 0.02 0.01 0.00 0.00 0.01 0.02 0.03 0.08 0.10 0.03 0.01 0.01 0.02 0.00 0.01 0.04 0.07 0.04 0.06 0.02 0.00 0.00 0.00 0.00 0.00 0.00 0.00 0.00
0.00 0.00 0.03 0.05 0.04 0.13 0.09 0.09 0.06 0.25 0.34 0.04 0.01 0.02 0.02 0.03 0.03 0.04 0.01 0.01 0.08 0.10 0.08 0.10 0.08 0.06 0.03 0.03 0.01 0.03 0.09 0.13 0.14 0.07 0.09 0.03 0.00 0.00 0.00 0.00 0.00 0.00 0.00 0.00
0.00 0.01 0.03 0.03 0.02 0.05 0.05 0.16 0.08 0.08 0.16 0.05 0.02 0.01 0.02 0.04 0.03 0.05 0.04 0.16 0.22 0.20 0.21 0.20 0.09 0.02 0.02 0.02 0.03 0.05 0.10 0.13 0.07 0.08 0.09 0.03 0.00 0.00 0.00 0.00 0.00 0.00 0.00 0.00
0.00 0.01 0.01 0.03 0.04 0.03 0.01 0.12 0.33 0.37 0.10 0.01 0.00 0.00 0.00 0.00 0.02 0.06 0.20 0.31 0.41 0.77 0.83 0.42 0.18 0.08 0.04 0.02 0.05 0.01 0.02 0.04 0.04 0.02 0.01 0.00 0.00 0.00 0.00 0.00 0.00 0.00 0.00 0.00
0.01 0.00 0.01 0.02 0.05 0.03 0.00 0.01 0.05 0.21 0.21 0.02 0.00 0.00 0.00 0.00 0.00 0.01 0.10 0.16 0.27 0.32 0.38 0.40 0.30 0.13 0.05 0.08 0.04 0.02 0.01 0.00 0.00 0.00 0.00 0.00 0.00 0.00 0.00 0.00 0.00 0.00 0.00 0.00
0.01 0.01 0.00 0.01 0.04 0.02 0.00 0.01 0.02 0.03 0.03 0.02 0.00 0.00 0.02 0.01 0.00 0.00 0.00 0.02 0.03 0.04 0.03 0.04 0.05 0.04 0.01 0.02 0.01 0.01 0.01 0.00 0.00 0.00 0.00 0.00 0.00 0.00 0.00 0.00 0.00 0.00 0.00 0.00
0.00 0.00 0.00 0.00 0.00 0.01 0.00 0.00 0.00 0.00 0.05 0.07 0.00 0.03 0.08 0.06 0.02 0.02 0.00 0.01 0.02 0.02 0.04 0.01 0.00 0.00 0.00 0.00 0.00 0.00 0.00 0.00 0.00 0.00 0.00 0.00 0.00 0.00 0.00 0.00 0.00 0.00 0.00 0.00
0.00 0.00 0.00 0.00 0.00 0.00 0.00 0.01 0.00 0.00 0.02 0.04 0.01 0.01 0.04 0.03 0.00 0.01 0.01 0.01 0.02 0.02 0.02 0.01 0.00 0.00 0.00 0.00 0.00 0.00 0.00 0.00 0.00 0.00 0.00 0.00 0.00 0.00 0.00 0.00 0.00 0.00 0.00 0.00
0.00 0.00 0.00 0.00 0.00 0.00 0.00 0.00 0.00 0.01 0.02 0.06 0.02 0.01 0.02 0.02 0.01 0.01 0.02 0.03 0.03 0.02 0.03 0.01 0.01 0.00 0.00 0.00 0.00 0.00 0.00 0.00 0.00 0.00 0.00 0.00 0.00 0.00 0.00 0.00 0.00 0.00 0.00 0.00
0.00 0.00 0.00 0.00 0.00 0.00 0.00 0.00 0.00 0.01 0.02 0.05 0.02 0.00 0.03 0.04 0.07 0.05 0.01 0.04 0.03 0.02 0.01 0.01 0.00 0.00 0.00 0.00 0.00 0.00 0.00 0.00 0.00 0.00 0.00 0.00 0.00 0.00 0.00 0.00 0.00 0.00 0.00 0.00
0.00 0.00 0.00 0.00 0.00 0.00 0.00 0.00 0.00 0.00 0.01 0.01 0.01 0.00 0.02 0.00 0.01 0.01 0.01 0.01 0.02 0.01 0.00 0.00 0.00 0.00 0.00 0.00 0.00 0.00 0.00 0.00 0.00 0.00 0.00 0.00 0.00 0.00 0.00 0.00 0.00 0.00 0.00 0.00
0.00 0.00 0.00 0.00 0.00 0.00 0.00 0.00 0.00 0.01 0.01 0.01 0.01 0.00 0.01 0.01 0.03 0.03 0.01 0.00 0.00 0.00 0.00 0.00 0.00 0.00 0.00 0.00 0.00 0.00 0.00 0.00 0.00 0.00 0.01 0.02 0.01 0.00 0.00 0.00 0.00 0.00 0.00 0.00
0.00 0.00 0.00 0.00 0.00 0.00 0.00 0.00 0.00 0.00 0.01 0.06 0.08 0.02 0.02 0.02 0.02 0.01 0.00 0.00 0.00 0.00 0.00 0.00 0.00 0.01 0.00 0.00 0.00 0.00 0.00 0.00 0.00 0.00 0.01 0.01 0.01 0.01 0.00 0.00 0.00 0.00 0.01 0.01
0.00 0.01 0.01 0.00 0.00 0.00 0.00 0.00 0.00 0.00 0.00 0.00 0.01 0.00 0.00 0.00 0.00 0.00 0.00 0.00 0.00 0.00 0.00 0.01 0.01 0.01 0.00 0.00 0.00 0.00 0.00 0.00 0.00 0.00 0.00 0.01 0.00 0.00 0.00 0.00 0.01 0.01 0.02 0.02
0.00 0.02 0.02 0.00 0.00 0.00 0.00 0.00 0.00 0.00 0.01 0.01 0.00 0.00 0.00 0.00 0.00 0.01 0.00 0.00 0.00 0.00 0.01 0.01 0.01 0.00 0.00 0.00 0.00 0.00 0.00 0.00 0.00 0.00 0.00 0.00 0.00 0.00 0.00 0.01 0.01 0.02 0.02 0.02
0.00 0.00 0.00 0.00 0.00 0.00 0.00 0.00 0.00 0.00 0.00 0.00 0.00 0.00 0.00 0.00 0.01 0.00 0.00 0.00 0.00 0.01 0.01 0.01 0.01 0.00 0.00 0.00 0.00 0.00 0.00 0.00 0.00 0.00 0.00 0.00 0.00 0.00 0.00 0.01 0.01 0.02 0.01 0.02
0.00 0.00 0.00 0.00 0.00 0.00 0.00 0.00 0.00 0.00 0.00 0.00 0.00 0.00 0.00 0.01 0.01 0.00 0.01 0.01 0.01 0.00 0.00 0.01 0.00 0.00 0.00 0.00 0.00 0.00 0.00 0.00 0.00 0.00 0.00 0.00 0.00 0.00 0.00 0.01 0.01 0.02 0.02 0.01
0.00 0.00 0.00 0.00 0.00 0.00 0.00 0.00 0.00 0.00 0.00 0.00 0.00 0.00 0.01 0.01 0.01 0.04 0.01 0.01 0.00 0.00 0.00 0.00 0.01 0.02 0.02 0.02 0.01 0.00 0.00 0.00 0.00 0.00 0.00 0.00 0.00 0.00 0.01 0.01 0.00 0.01 0.01 0.02
0.00 0.00 0.00 0.00 0.00 0.00 0.00 0.00 0.00 0.00 0.00 0.00 0.00 0.08 0.09 0.05 0.06 0.03 0.06 0.13 0.06 0.04 0.05 0.04 0.04 0.05 0.05 0.04 0.03 0.03 0.01 0.00 0.00 0.00 0.00 0.00 0.00 0.00 0.00 0.01 0.01 0.02 0.02 0.02

GFSNW_prec_precacc12_219.txt.gz
Total_Precipitation_Accumulation
0.04 0.04 0.04 0.04 0.09 0.07 0.05 0.05 0.05 0.06 0.07 0.12 0.09 0.05 0.03 0.01 0.01 0.03 0.08 0.07 0.06 0.11 0.29 0.17 0.19 0.17 0.15 0.12 0.14 0.16 0.16 0.38 0.32 0.30 0.31 0.38 0.51 0.74 1.12 1.31 0.99 0.71 0.59 0.56
0.04 0.04 0.05 0.05 0.09 0.13 0.05 0.07 0.03 0.06 0.10 0.09 0.08 0.05 0.03 0.02 0.01 0.01 0.02 0.04 0.12 0.22 0.28 0.11 0.11 0.25 0.15 0.14 0.17 0.21 0.22 0.18 0.15 0.11 0.07 0.10 0.18 0.23 0.30 0.46 0.55 0.41 0.39 0.34
0.00 0.01 0.04 0.06 0.08 0.20 0.10 0.07 0.06 0.05 0.07 0.05 0.08 0.10 0.06 0.04 0.03 0.06 0.09 0.06 0.05 0.03 0.04 0.09 0.07 0.06 0.08 0.04 0.04 0.10 0.15 0.25 0.21 0.13 0.12 0.11 0.07 0.07 0.16 0.22 0.26 0.22 0.17 0.11
0.00 0.00 0.01 0.02 0.08 0.23 0.33 0.29 0.13 0.06 0.08 0.08 0.10 0.13 0.12 0.09 0.09 0.11 0.15 0.12 0.12 0.11 0.04 0.03 0.04 0.04 0.01 0.00 0.00 0.04 0.07 0.10 0.09 0.04 0.03 0.02 0.00 0.01 0.03 0.09 0.06 0.08 0.05 0.03
0.01 0.02 0.04 0.05 0.15 0.17 0.26 0.37 0.16 0.11 0.06 0.06 0.10 0.14 0.09 0.04 0.04 0.06 0.04 0.07 0.09 0.12 0.14 0.03 0.02 0.02 0.02 0.01 0.01 0.02 0.04 0.01 0.01 0.00 0.00 0.00 0.01 0.01 0.00 0.00 0.01 0.01 0.00 0.00
0.01 0.02 0.03 0.05 0.15 0.22 0.09 0.10 0.15 0.23 0.12 0.05 0.09 0.09 0.08 0.07 0.08 0.05 0.05 0.05 0.03 0.03 0.02 0.01 0.00 0.00 0.00 0.00 0.00 0.01 0.01 0.02 0.02 0.00 0.00 0.00 0.00 0.00 0.00 0.00 0.00 0.00 0.00 0.00
0.01 0.01 0.01 0.02 0.08 0.26 0.15 0.04 0.10 0.31 0.19 0.11 0.09 0.06 0.05 0.05 0.07 0.07 0.02 0.04 0.03 0.01 0.01 0.00 0.00 0.00 0.00 0.00 0.00 0.00 0.01 0.02 0.06 0.03 0.01 0.01 0.00 0.00 0.00 0.00 0.00 0.00 0.00 0.00
0.00 0.00 0.00 0.02 0.06 0.18 0.26 0.20 0.24 0.44 0.24 0.10 0.12 0.07 0.09 0.08 0.06 0.05 0.02 0.01 0.02 0.02 0.02 0.02 0.01 0.00 0.00 0.00 0.00 0.00 0.00 0.03 0.07 0.04 0.02 0.01 0.00 0.00 0.00 0.00 0.00 0.00 0.00 0.00
0.00 0.00 0.01 0.03 0.04 0.08 0.16 0.21 0.25 0.68 0.59 0.21 0.08 0.12 0.11 0.08 0.06 0.05 0.02 0.00 0.01 0.02 0.03 0.05 0.04 0.02 0.01 0.01 0.03 0.02 0.02 0.06 0.10 0.04 0.05 0.01 0.02 0.00 0.00 0.00 0.00 0.00 0.00 0.00
0.00 0.00 0.01 0.03 0.01 0.07 0.05 0.06 0.10 0.20 0.25 0.05 0.04 0.07 0.09 0.12 0.09 0.08 0.07 0.06 0.10 0.13 0.08 0.08 0.06 0.07 0.04 0.03 0.02 0.06 0.13 0.16 0.14 0.08 0.09 0.04 0.01 0.00 0.00 0.00 0.01 0.00 0.00 0.00
0.00 0.01 0.02 0.03 0.02 0.03 0.01 0.04 0.04 0.09 0.12 0.04 0.03 0.04 0.06 0.08 0.07 0.10 0.12 0.06 0.19 0.21 0.21 0.15 0.11 0.06 0.06 0.05 0.03 0.06 0.11 0.20 0.12 0.10 0.12 0.08 0.00 0.00 0.01 0.02 0.01 0.00 0.00 0.00
0.00 0.01 0.01 0.03 0.03 0.01 0.00 0.05 0.20 0.22 0.09 0.01 0.00 0.01 0.02 0.02 0.04 0.07 0.16 0.22 0.29 0.74 0.75 0.51 0.25 0.15 0.09 0.05 0.06 0.04 0.03 0.06 0.13 0.08 0.10 0.02 0.00 0.00 0.00 0.00 0.00 0.00 0.00 0.00
0.00 0.00 0.01 0.02 0.02 0.01 0.00 0.02 0.05 0.16 0.16 0.03 0.03 0.05 0.02 0.00 0.00 0.02 0.13 0.20 0.30 0.35 0.41 0.44 0.36 0.26 0.14 0.18 0.11 0.07 0.04 0.01 0.02 0.01 0.01 0.00 0.00 0.00 0.00 0.00 0.00 0.00 0.00 0.00
0.00 0.00 0.00 0.00 0.02 0.02 0.00 0.01 0.02 0.03 0.02 0.03 0.04 0.01 0.05 0.02 0.00 0.00 0.01 0.05 0.07 0.07 0.09 0.10 0.09 0.08 0.02 0.06 0.03 0.03 0.07 0.02 0.03 0.03 0.01 0.00 0.00 0.00 0.00 0.00 0.00 0.00 0.00 0.00
0.00 0.00 0.00 0.00 0.00 0.00 0.00 0.00 0.01 0.01 0.05 0.07 0.01 0.03 0.06 0.08 0.02 0.01 0.02 0.02 0.04 0.04 0.07 0.05 0.02 0.00 0.00 0.00 0.00 0.00 0.00 0.00 0.01 0.03 0.01 0.00 0.00 0.01 0.00 0.00 0.00 0.00 0.00 0.00
0.00 0.00 0.00 0.00 0.00 0.00 0.00 0.01 0.01 0.00 0.03 0.05 0.02 0.02 0.03 0.06 0.03 0.02 0.04 0.04 0.02 0.03 0.04 0.04 0.04 0.01 0.00 0.01 0.01 0.00 0.00 0.00 0.00 0.00 0.00 0.00 0.00 0.00 0.00 0.00 0.00 0.00 0.00 0.00
0.00 0.00 0.00 0.00 0.00 0.00 0.00 0.01 0.01 0.01 0.03 0.08 0.03 0.05 0.04 0.01 0.04 0.05 0.05 0.02 0.02 0.03 0.06 0.05 0.04 0.04 0.01 0.01 0.01 0.00 0.00 0.00 0.00 0.00 0.00 0.00 0.00 0.00 0.00 0.00 0.00 0.00 0.00 0.00
0.00 0.00 0.00 0.00 0.00 0.00 0.00 0.00 0.00 0.01 0.03 0.08 0.04 0.03 0.08 0.03 0.10 0.13 0.05 0.10 0.06 0.05 0.05 0.03 0.03 0.03 0.02 0.01 0.00 0.00 0.00 0.00 0.00 0.00 0.00 0.00 0.00 0.00 0.00 0.00 0.00 0.00 0.00 0.00
0.00 0.00 0.00 0.00 0.00 0.01 0.00 0.00 0.00 0.01 0.02 0.02 0.01 0.01 0.06 0.01 0.04 0.05 0.05 0.05 0.07 0.05 0.02 0.03 0.01 0.01 0.02 0.02 0.00 0.01 0.02 0.01 0.01 0.00 0.00 0.00 0.00 0.00 0.00 0.00 0.00 0.00 0.00 0.00
0.00 0.00 0.00 0.01 0.00 0.00 0.00 0.01 0.02 0.02 0.02 0.02 0.01 0.01 0.04 0.03 0.07 0.10 0.05 0.03 0.03 0.01 0.01 0.01 0.00 0.01 0.02 0.00 0.00 0.01 0.05 0.02 0.00 0.00 0.00 0.01 0.00 0.00 0.00 0.00 0.00 0.00 0.01 0.01
0.00 0.00 0.00 0.00 0.00 0.00 0.01 0.01 0.01 0.00 0.01 0.04 0.06 0.03 0.03 0.01 0.03 0.03 0.02 0.02 0.01 0.00 0.01 0.01 0.03 0.06 0.03 0.00 0.00 0.00 0.00 0.00 0.00 0.00 0.00 0.00 0.01 0.00 0.00 0.00 0.00 0.00 0.01 0.01
0.00 0.01 0.01 0.00 0.00 0.00 0.00 0.00 0.00 0.00 0.00 0.00 0.02 0.02 0.00 0.00 0.00 0.01 0.01 0.00 0.00 0.00 0.01 0.02 0.04 0.05 0.00 0.00 0.00 0.00 0.00 0.00 0.00 0.00 0.00 0.00 0.00 0.00 0.00 0.00 0.01 0.01 0.02 0.01
0.00 0.02 0.03 0.00 0.00 0.00 0.00 0.00 0.00 0.00 0.00 0.00 0.00 0.01 0.00 0.00 0.02 0.03 0.02 0.02 0.01 0.01 0.03 0.03 0.05 0.04 0.00 0.00 0.00 0.00 0.00 0.00 0.00 0.00 0.00 0.00 0.00 0.00 0.00 0.01 0.01 0.02 0.01 0.01
0.00 0.00 0.00 0.00 0.00 0.00 0.00 0.00 0.00 0.00 0.00 0.00 0.00 0.01 0.01 0.01 0.02 0.02 0.02 0.01 0.01 0.02 0.02 0.02 0.05 0.01 0.00 0.00 0.00 0.00 0.00 0.00 0.00 0.00 0.00 0.00 0.00 0.00 0.00 0.01 0.01 0.01 0.01 0.01
0.00 0.00 0.00 0.00 0.00 0.00 0.00 0.00 0.00 0.00 0.00 0.00 0.01 0.01 0.01 0.02 0.02 0.01 0.02 0.02 0.02 0.01 0.02 0.05 0.01 0.00 0.00 0.00 0.00 0.00 0.00 0.00 0.00 0.00 0.00 0.00 0.00 0.00 0.00 0.01 0.00 0.00 0.01 0.01
0.00 0.00 0.00 0.00 0.00 0.00 0.00 0.00 0.00 0.00 0.00 0.00 0.00 0.01 0.01 0.01 0.02 0.04 0.01 0.01 0.01 0.02 0.03 0.00 0.00 0.01 0.02 0.02 0.01 0.00 0.00 0.00 0.00 0.00 0.00 0.00 0.00 0.00 0.00 0.01 0.00 0.01 0.01 0.01
0.00 0.00 0.00 0.00 0.00 0.00 0.00 0.00 0.00 0.00 0.00 0.01 0.01 0.01 0.02 0.04 0.05 0.02 0.01 0.04 0.06 0.03 0.01 0.00 0.02 0.05 0.05 0.04 0.03 0.03 0.02 0.00 0.00 0.00 0.00 0.00 0.00 0.00 0.00 0.00 0.00 0.00 0.00 0.00

GFSNW_prec_precacc12_225.txt.gz
Total_Precipitation_Accumulation
0.00 0.00 0.00 0.01 0.03 0.02 0.02 0.04 0.05 0.08 0.04 0.16 0.16 0.10 0.08 0.05 0.01 0.01 0.03 0.04 0.03 0.04 0.10 0.06 0.06 0.14 0.23 0.10 0.12 0.14 0.12 0.20 0.15 0.20 0.19 0.19 0.29 0.70 1.25 1.46 1.16 0.84 0.80 0.80
0.00 0.00 0.00 0.00 0.01 0.03 0.05 0.05 0.03 0.09 0.12 0.11 0.11 0.10 0.06 0.04 0.02 0.03 0.02 0.05 0.08 0.11 0.14 0.15 0.10 0.25 0.18 0.11 0.07 0.09 0.08 0.15 0.07 0.09 0.08 0.10 0.19 0.24 0.33 0.52 0.67 0.64 0.59 0.61
0.00 0.00 0.00 0.00 0.01 0.02 0.03 0.05 0.05 0.09 0.13 0.10 0.11 0.11 0.07 0.05 0.03 0.05 0.07 0.07 0.09 0.07 0.05 0.10 0.09 0.11 0.17 0.04 0.04 0.04 0.07 0.17 0.20 0.17 0.19 0.18 0.16 0.15 0.14 0.21 0.33 0.34 0.35 0.36
0.00 0.00 0.01 0.02 0.06 0.04 0.05 0.07 0.06 0.08 0.12 0.12 0.16 0.18 0.13 0.07 0.06 0.06 0.13 0.18 0.21 0.27 0.18 0.06 0.05 0.11 0.10 0.06 0.11 0.07 0.06 0.10 0.08 0.04 0.01 0.00 0.00 0.02 0.03 0.06 0.08 0.09 0.22 0.18
0.00 0.00 0.01 0.01 0.06 0.04 0.09 0.06 0.07 0.09 0.07 0.07 0.10 0.16 0.12 0.10 0.07 0.09 0.05 0.10 0.14 0.22 0.29 0.22 0.23 0.17 0.10 0.05 0.06 0.03 0.06 0.05 0.01 0.00 0.00 0.01 0.01 0.00 0.00 0.01 0.02 0.03 0.01 0.01
0.00 0.00 0.00 0.01 0.04 0.07 0.08 0.07 0.06 0.15 0.06 0.06 0.12 0.15 0.13 0.10 0.12 0.06 0.06 0.08 0.07 0.08 0.04 0.04 0.04 0.01 0.01 0.00 0.00 0.01 0.01 0.02 0.02 0.00 0.00 0.00 0.00 0.00 0.00 0.00 0.00 0.01 0.01 0.01
0.01 0.01 0.00 0.00 0.02 0.11 0.10 0.07 0.12 0.18 0.09 0.11 0.13 0.13 0.14 0.09 0.08 0.10 0.03 0.05 0.08 0.04 0.01 0.00 0.00 0.00 0.00 0.00 0.00 0.00 0.01 0.02 0.03 0.01 0.01 0.00 0.00 0.00 0.00 0.00 0.00 0.00 0.00 0.00
0.00 0.00 0.00 0.01 0.02 0.07 0.11 0.17 0.21 0.31 0.17 0.09 0.14 0.12 0.10 0.08 0.07 0.06 0.03 0.03 0.04 0.02 0.04 0.05 0.02 0.00 0.00 0.00 0.00 0.00 0.00 0.03 0.07 0.04 0.02 0.00 0.00 0.00 0.00 0.00 0.00 0.00 0.00 0.00
0.00 0.00 0.00 0.01 0.01 0.01 0.07 0.12 0.15 0.20 0.23 0.15 0.10 0.13 0.14 0.13 0.12 0.11 0.06 0.01 0.01 0.06 0.09 0.09 0.04 0.02 0.01 0.01 0.04 0.03 0.02 0.04 0.09 0.05 0.06 0.04 0.10 0.01 0.00 0.00 0.01 0.00 0.00 0.00
0.00 0.00 0.01 0.01 0.00 0.00 0.02 0.06 0.15 0.10 0.09 0.04 0.05 0.10 0.15 0.19 0.17 0.15 0.17 0.11 0.12 0.15 0.14 0.12 0.10 0.07 0.04 0.03 0.02 0.07 0.13 0.14 0.10 0.08 0.09 0.08 0.06 0.01 0.00 0.02 0.06 0.00 0.00 0.00
0.00 0.00 0.00 0.00 0.01 0.00 0.00 0.03 0.06 0.07 0.07 0.02 0.02 0.06 0.07 0.13 0.13 0.17 0.23 0.10 0.21 0.19 0.22 0.19 0.17 0.12 0.13 0.10 0.04 0.08 0.14 0.25 0.20 0.22 0.21 0.15 0.02 0.02 0.04 0.10 0.03 0.00 0.00 0.00
0.00 0.00 0.00 0.00 0.00 0.01 0.00 0.02 0.03 0.05 0.08 0.01 0.00 0.01 0.03 0.06 0.10 0.13 0.11 0.15 0.16 0.31 0.33 0.38 0.25 0.19 0.27 0.23 0.21 0.14 0.08 0.10 0.18 0.22 0.32 0.10 0.01 0.02 0.00 0.00 0.00 0.00 0.00 0.00
0.00 0.00 0.00 0.00 0.00 0.01 0.00 0.01 0.03 0.05 0.05 0.02 0.05 0.09 0.02 0.00 0.02 0.05 0.11 0.16 0.17 0.26 0.24 0.17 0.23 0.42 0.29 0.34 0.28 0.23 0.10 0.09 0.08 0.11 0.11 0.08 0.05 0.03 0.01 0.00 0.00 0.00 0.00 0.00
0.00 0.00 0.00 0.00 0.00 0.00 0.00 0.01 0.02 0.04 0.04 0.03 0.05 0.01 0.06 0.02 0.01 0.02 0.02 0.08 0.11 0.11 0.13 0.14 0.11 0.13 0.06 0.09 0.06 0.06 0.13 0.06 0.08 0.10 0.11 0.14 0.06 0.03 0.01 0.00 0.00 0.00 0.00 0.00
0.00 0.00 0.00 0.00 0.00 0.00 0.00 0.01 0.01 0.01 0.03 0.04 0.01 0.04 0.03 0.04 0.01 0.01 0.04 0.04 0.06 0.05 0.08 0.07 0.04 0.03 0.00 0.00 0.02 0.01 0.00 0.01 0.02 0.06 0.04 0.02 0.01 0.01 0.00 0.00 0.00 0.00 0.00 0.00
0.00 0.00 0.00 0.00 0.00 0.00 0.01 0.02 0.03 0.00 0.04 0.08 0.02 0.03 0.01 0.05 0.04 0.03 0.05 0.03 0.02 0.03 0.05 0.06 0.08 0.03 0.02 0.01 0.01 0.00 0.00 0.00 0.00 0.00 0.00 0.00 0.00 0.00 0.00 0.00 0.00 0.00 0.00 0.00
0.00 0.00 0.00 0.00 0.00 0.00 0.02 0.04 0.03 0.00 0.04 0.08 0.04 0.08 0.05 0.00 0.05 0.10 0.10 0.03 0.02 0.04 0.07 0.07 0.09 0.07 0.03 0.02 0.03 0.01 0.00 0.00 0.00 0.00 0.00 0.00 0.00 0.00 0.00 0.00 0.00 0.00 0.00 0.00
0.00 0.00 0.00 0.00 0.00 0.00 0.01 0.00 0.00 0.00 0.03 0.09 0.06 0.03 0.10 0.02 0.10 0.18 0.09 0.17 0.11 0.08 0.07 0.06 0.05 0.05 0.08 0.05 0.01 0.00 0.00 0.00 0.00 0.01 0.01 0.00 0.00 0.00 0.00 0.00 0.00 0.00 0.00 0.00
0.00 0.00 0.00 0.00 0.01 0.04 0.03 0.00 0.00 0.01 0.03 0.05 0.02 0.02 0.09 0.02 0.05 0.08 0.11 0.11 0.13 0.10 0.05 0.05 0.02 0.03 0.06 0.07 0.01 0.01 0.03 0.03 0.06 0.07 0.03 0.00 0.00 0.00 0.00 0.00 0.00 0.00 0.00 0.00
0.00 0.00 0.01 0.02 0.01 0.00 0.00 0.02 0.04 0.04 0.05 0.03 0.01 0.02 0.06 0.05 0.09 0.15 0.10 0.07 0.06 0.03 0.03 0.01 0.01 0.02 0.07 0.01 0.00 0.01 0.06 0.04 0.00 0.00 0.00 0.00 0.00 0.00 0.00 0.00 0.00 0.00 0.01 0.01
0.00 0.00 0.00 0.00 0.00 0.00 0.02 0.03 0.02 0.01 0.02 0.02 0.03 0.04 0.05 0.02 0.03 0.05 0.03 0.03 0.01 0.01 0.02 0.02 0.03 0.11 0.10 0.00 0.00 0.00 0.00 0.00 0.00 0.00 0.00 0.00 0.00 0.00 0.00 0.00 0.00 0.00 0.01 0.01
0.00 0.01 0.01 0.00 0.00 0.01 0.02 0.01 0.00 0.01 0.01 0.01 0.03 0.03 0.01 0.00 0.00 0.02 0.01 0.01 0.00 0.01 0.01 0.03 0.04 0.11 0.02 0.00 0.00 0.00 0.00 0.00 0.00 0.00 0.00 0.00 0.00 0.00 0.00 0.00 0.00 0.01 0.01 0.01
0.01 0.01 0.02 0.01 0.01 0.01 0.00 0.00 0.00 0.00 0.00 0.00 0.00 0.02 0.01 0.01 0.03 0.04 0.03 0.02 0.02 0.02 0.04 0.04 0.08 0.08 0.00 0.00 0.00 0.00 0.00 0.00 0.00 0.00 0.00 0.00 0.00 0.00 0.00 0.00 0.00 0.00 0.00 0.00
0.01 0.00 0.00 0.00 0.00 0.00 0.00 0.00 0.00 0.00 0.00 0.00 0.00 0.03 0.03 0.02 0.03 0.02 0.02 0.02 0.02 0.03 0.02 0.04 0.12 0.02 0.00 0.00 0.00 0.00 0.00 0.00 0.00 0.00 0.00 0.00 0.00 0.00 0.00 0.00 0.00 0.00 0.00 0.00
0.00 0.00 0.00 0.00 0.00 0.00 0.00 0.00 0.00 0.00 0.00 0.01 0.02 0.02 0.02 0.03 0.03 0.02 0.02 0.03 0.02 0.01 0.03 0.11 0.02 0.00 0.00 0.00 0.00 0.00 0.00 0.00 0.00 0.00 0.00 0.00 0.00 0.00 0.00 0.00 0.00 0.00 0.00 0.00
0.00 0.00 0.00 0.00 0.00 0.00 0.00 0.00 0.00 0.00 0.00 0.00 0.01 0.01 0.02 0.01 0.01 0.03 0.02 0.01 0.01 0.03 0.08 0.03 0.00 0.00 0.00 0.00 0.00 0.00 0.00 0.00 0.00 0.00 0.00 0.00 0.00 0.00 0.00 0.00 0.00 0.00 0.00 0.00
0.00 0.00 0.00 0.00 0.00 0.00 0.00 0.00 0.00 0.00 0.01 0.01 0.02 0.02 0.01 0.01 0.03 0.01 0.01 0.01 0.04 0.06 0.04 0.00 0.00 0.00 0.00 0.00 0.01 0.02 0.02 0.00 0.00 0.01 0.00 0.00 0.00 0.00 0.01 0.01 0.00 0.00 0.00 0.00

GFSNW_prec_precacc12_228.txt.gz
Total_Precipitation_Accumulation
0.00 0.00 0.00 0.00 0.00 0.00 0.01 0.03 0.05 0.08 0.04 0.13 0.14 0.09 0.08 0.05 0.01 0.00 0.01 0.04 0.03 0.04 0.03 0.02 0.03 0.10 0.20 0.10 0.13 0.14 0.10 0.15 0.08 0.11 0.11 0.19 0.31 0.67 1.14 1.28 1.09 0.89 0.85 0.84
0.00 0.00 0.00 0.00 0.00 0.00 0.03 0.03 0.02 0.09 0.09 0.09 0.10 0.10 0.06 0.03 0.02 0.02 0.02 0.04 0.07 0.08 0.09 0.14 0.09 0.16 0.13 0.10 0.10 0.17 0.12 0.22 0.10 0.10 0.10 0.08 0.19 0.24 0.31 0.48 0.64 0.65 0.59 0.63
0.00 0.00 0.00 0.00 0.00 0.00 0.02 0.03 0.03 0.09 0.12 0.10 0.10 0.10 0.07 0.04 0.02 0.03 0.05 0.07 0.07 0.06 0.04 0.10 0.09 0.10 0.14 0.03 0.06 0.07 0.10 0.23 0.22 0.19 0.22 0.17 0.14 0.17 0.10 0.14 0.30 0.34 0.39 0.47
0.00 0.00 0.00 0.00 0.01 0.00 0.03 0.03 0.03 0.07 0.08 0.10 0.13 0.14 0.10 0.06 0.04 0.04 0.05 0.11 0.16 0.25 0.18 0.06 0.05 0.11 0.10 0.07 0.14 0.06 0.05 0.09 0.07 0.05 0.02 0.00 0.00 0.02 0.03 0.05 0.08 0.08 0.25 0.21
0.00 0.00 0.00 0.00 0.00 0.00 0.06 0.05 0.05 0.07 0.06 0.06 0.07 0.11 0.09 0.09 0.05 0.07 0.04 0.05 0.08 0.21 0.28 0.22 0.23 0.17 0.10 0.05 0.06 0.03 0.06 0.05 0.01 0.00 0.00 0.01 0.01 0.00 0.00 0.02 0.04 0.05 0.03 0.02
0.00 0.00 0.00 0.00 0.00 0.02 0.05 0.06 0.06 0.11 0.04 0.05 0.11 0.13 0.12 0.09 0.09 0.04 0.05 0.07 0.06 0.07 0.04 0.03 0.04 0.01 0.01 0.00 0.00 0.00 0.01 0.02 0.02 0.00 0.00 0.00 0.00 0.00 0.00 0.00 0.01 0.02 0.02 0.01
0.00 0.00 0.00 0.00 0.01 0.04 0.06 0.06 0.09 0.09 0.05 0.10 0.12 0.12 0.13 0.08 0.06 0.08 0.03 0.05 0.10 0.06 0.01 0.00 0.00 0.00 0.00 0.00 0.00 0.00 0.01 0.01 0.01 0.01 0.00 0.00 0.00 0.00 0.00 0.00 0.00 0.00 0.00 0.00
0.00 0.00 0.00 0.00 0.00 0.01 0.06 0.13 0.07 0.10 0.09 0.08 0.13 0.10 0.07 0.07 0.05 0.05 0.03 0.03 0.06 0.05 0.04 0.05 0.02 0.00 0.00 0.00 0.00 0.00 0.00 0.02 0.05 0.03 0.02 0.00 0.01 0.01 0.01 0.00 0.00 0.00 0.00 0.00
0.00 0.00 0.00 0.00 0.00 0.00 0.04 0.08 0.10 0.04 0.07 0.07 0.06 0.06 0.09 0.11 0.10 0.10 0.06 0.01 0.00 0.06 0.09 0.07 0.03 0.01 0.01 0.01 0.02 0.02 0.01 0.02 0.06 0.03 0.05 0.04 0.17 0.04 0.00 0.00 0.06 0.03 0.00 0.00
0.00 0.00 0.00 0.00 0.00 0.00 0.01 0.05 0.14 0.07 0.04 0.03 0.05 0.08 0.13 0.16 0.15 0.13 0.16 0.10 0.08 0.12 0.11 0.09 0.09 0.07 0.04 0.03 0.01 0.05 0.09 0.09 0.05 0.06 0.07 0.07 0.06 0.03 0.00 0.08 0.21 0.03 0.01 0.00
0.00 0.00 0.00 0.00 0.00 0.00 0.00 0.02 0.04 0.05 0.04 0.01 0.02 0.05 0.05 0.10 0.12 0.15 0.20 0.09 0.18 0.13 0.15 0.15 0.15 0.16 0.21 0.15 0.08 0.07 0.08 0.17 0.16 0.19 0.22 0.18 0.02 0.02 0.07 0.19 0.07 0.00 0.00 0.00
0.00 0.00 0.00 0.00 0.00 0.00 0.00 0.01 0.03 0.03 0.05 0.01 0.00 0.01 0.02 0.06 0.10 0.11 0.09 0.12 0.12 0.13 0.13 0.22 0.15 0.17 0.32 0.28 0.24 0.15 0.10 0.14 0.20 0.22 0.35 0.13 0.03 0.04 0.01 0.00 0.00 0.00 0.00 0.00
0.00 0.00 0.00 0.00 0.00 0.00 0.00 0.01 0.03 0.04 0.03 0.01 0.05 0.09 0.02 0.00 0.02 0.04 0.07 0.12 0.11 0.10 0.12 0.09 0.12 0.33 0.27 0.31 0.27 0.22 0.09 0.09 0.09 0.27 0.20 0.09 0.11 0.07 0.01 0.00 0.00 0.00 0.00 0.00
0.00 0.00 0.00 0.00 0.00 0.00 0.00 0.01 0.02 0.03 0.03 0.03 0.05 0.01 0.05 0.02 0.01 0.02 0.02 0.07 0.09 0.08 0.11 0.11 0.09 0.10 0.06 0.08 0.06 0.05 0.12 0.06 0.07 0.10 0.14 0.15 0.08 0.03 0.01 0.00 0.00 0.00 0.00 0.00
0.00 0.00 0.00 0.00 0.00 0.00 0.00 0.01 0.01 0.01 0.03 0.03 0.01 0.04 0.03 0.03 0.01 0.01 0.04 0.04 0.05 0.03 0.06 0.06 0.04 0.03 0.01 0.01 0.02 0.01 0.00 0.01 0.02 0.06 0.04 0.02 0.01 0.01 0.00 0.00 0.00 0.00 0.00 0.00
0.00 0.00 0.00 0.00 0.00 0.00 0.01 0.02 0.03 0.00 0.03 0.06 0.01 0.03 0.01 0.04 0.04 0.03 0.05 0.03 0.01 0.02 0.03 0.05 0.07 0.03 0.02 0.01 0.01 0.00 0.00 0.00 0.00 0.00 0.00 0.00 0.00 0.00 0.00 0.00 0.00 0.00 0.00 0.00
0.00 0.00 0.00 0.00 0.00 0.00 0.02 0.04 0.03 0.00 0.03 0.06 0.03 0.07 0.05 0.00 0.04 0.10 0.10 0.03 0.01 0.02 0.05 0.06 0.08 0.07 0.03 0.02 0.03 0.01 0.00 0.00 0.00 0.00 0.00 0.00 0.00 0.00 0.00 0.00 0.00 0.00 0.00 0.00
0.00 0.00 0.00 0.00 0.00 0.00 0.01 0.00 0.00 0.00 0.02 0.07 0.05 0.03 0.08 0.01 0.08 0.15 0.09 0.16 0.10 0.07 0.06 0.05 0.05 0.05 0.08 0.06 0.01 0.00 0.00 0.00 0.00 0.01 0.01 0.01 0.00 0.00 0.00 0.00 0.00 0.00 0.00 0.00
0.00 0.00 0.00 0.00 0.01 0.04 0.03 0.00 0.00 0.01 0.03 0.04 0.02 0.02 0.07 0.02 0.04 0.07 0.10 0.10 0.11 0.09 0.04 0.04 0.02 0.03 0.06 0.07 0.01 0.01 0.03 0.03 0.06 0.07 0.03 0.00 0.00 0.00 0.00 0.00 0.00 0.00 0.00 0.00
0.00 0.00 0.01 0.02 0.01 0.00 0.00 0.02 0.03 0.03 0.04 0.03 0.01 0.02 0.05 0.04 0.07 0.12 0.09 0.07 0.05 0.03 0.03 0.01 0.01 0.02 0.06 0.01 0.00 0.00 0.06 0.04 0.00 0.00 0.00 0.00 0.00 0.00 0.00 0.00 0.00 0.00 0.00 0.00
0.00 0.00 0.00 0.00 0.00 0.00 0.02 0.02 0.03 0.01 0.02 0.02 0.02 0.03 0.04 0.02 0.02 0.03 0.02 0.03 0.01 0.01 0.02 0.01 0.03 0.10 0.10 0.00 0.00 0.00 0.00 0.00 0.00 0.00 0.00 0.00 0.00 0.00 0.00 0.00 0.00 0.00 0.00 0.00
0.00 0.00 0.00 0.00 0.00 0.01 0.02 0.01 0.00 0.01 0.01 0.01 0.03 0.03 0.01 0.00 0.00 0.01 0.01 0.01 0.00 0.01 0.01 0.03 0.03 0.10 0.02 0.00 0.00 0.00 0.00 0.00 0.00 0.00 0.00 0.00 0.00 0.00 0.00 0.00 0.00 0.00 0.00 0.00
0.00 0.01 0.01 0.01 0.01 0.01 0.01 0.00 0.00 0.00 0.00 0.00 0.00 0.02 0.01 0.01 0.03 0.03 0.02 0.02 0.02 0.02 0.03 0.03 0.07 0.07 0.00 0.00 0.00 0.00 0.00 0.00 0.00 0.00 0.00 0.00 0.00 0.00 0.00 0.00 0.00 0.00 0.00 0.00
0.01 0.00 0.00 0.00 0.00 0.00 0.00 0.00 0.00 0.00 0.00 0.00 0.00 0.03 0.03 0.02 0.03 0.02 0.02 0.01 0.02 0.02 0.01 0.03 0.11 0.02 0.00 0.00 0.00 0.00 0.00 0.00 0.00 0.00 0.00 0.00 0.00 0.00 0.00 0.00 0.00 0.00 0.00 0.00
0.00 0.00 0.00 0.00 0.00 0.00 0.00 0.00 0.00 0.00 0.00 0.01 0.02 0.02 0.02 0.02 0.02 0.01 0.02 0.02 0.02 0.01 0.02 0.10 0.02 0.00 0.00 0.00 0.00 0.00 0.00 0.00 0.00 0.00 0.00 0.00 0.00 0.00 0.00 0.00 0.00 0.00 0.00 0.00
0.00 0.00 0.00 0.00 0.00 0.00 0.00 0.00 0.00 0.00 0.00 0.00 0.01 0.01 0.01 0.01 0.01 0.02 0.01 0.01 0.00 0.03 0.08 0.03 0.00 0.00 0.00 0.00 0.00 0.00 0.00 0.00 0.00 0.00 0.00 0.00 0.00 0.00 0.00 0.00 0.00 0.00 0.00 0.00
0.00 0.00 0.00 0.00 0.00 0.00 0.00 0.00 0.00 0.00 0.01 0.01 0.01 0.02 0.01 0.01 0.02 0.01 0.00 0.01 0.04 0.06 0.04 0.00 0.00 0.00 0.00 0.00 0.00 0.00 0.00 0.00 0.00 0.01 0.00 0.00 0.00 0.00 0.00 0.01 0.00 0.00 0.00 0.00

GFSNW_prec_precacc12_231.txt.gz
Total_Precipitation_Accumulation
0.00 0.00 0.00 0.00 0.00 0.00 0.00 0.00 0.01 0.03 0.02 0.06 0.08 0.05 0.06 0.05 0.01 0.00 0.00 0.02 0.02 0.04 0.02 0.01 0.01 0.06 0.16 0.08 0.10 0.08 0.08 0.17 0.06 0.07 0.09 0.16 0.31 0.66 0.98 1.09 1.00 0.94 0.81 0.80
0.00 0.00 0.00 0.00 0.00 0.00 0.00 0.01 0.00 0.04 0.05 0.05 0.05 0.05 0.03 0.02 0.02 0.02 0.01 0.03 0.05 0.05 0.06 0.11 0.06 0.10 0.10 0.08 0.10 0.19 0.19 0.28 0.09 0.06 0.14 0.06 0.16 0.22 0.30 0.49 0.60 0.62 0.63 0.62
0.00 0.00 0.00 0.00 0.00 0.00 0.00 0.01 0.01 0.04 0.07 0.06 0.07 0.06 0.04 0.02 0.00 0.00 0.01 0.04 0.06 0.06 0.03 0.07 0.06 0.06 0.11 0.03 0.06 0.08 0.11 0.19 0.19 0.19 0.25 0.15 0.12 0.17 0.08 0.10 0.25 0.32 0.45 0.55
0.00 0.00 0.00 0.00 0.00 0.00 0.00 0.02 0.01 0.03 0.04 0.05 0.06 0.07 0.05 0.03 0.01 0.01 0.02 0.07 0.10 0.17 0.14 0.04 0.02 0.08 0.09 0.06 0.14 0.06 0.04 0.06 0.05 0.04 0.02 0.01 0.01 0.02 0.03 0.03 0.06 0.10 0.31 0.28
0.00 0.00 0.00 0.00 0.00 0.00 0.01 0.02 0.02 0.02 0.02 0.02 0.03 0.06 0.06 0.06 0.03 0.04 0.02 0.03 0.05 0.10 0.15 0.20 0.21 0.15 0.08 0.04 0.05 0.02 0.03 0.04 0.00 0.00 0.00 0.01 0.01 0.00 0.00 0.02 0.04 0.05 0.05 0.07
0.00 0.00 0.00 0.00 0.00 0.00 0.02 0.03 0.03 0.05 0.01 0.02 0.06 0.08 0.07 0.05 0.05 0.02 0.02 0.04 0.04 0.05 0.03 0.02 0.03 0.01 0.00 0.00 0.00 0.00 0.00 0.01 0.01 0.00 0.00 0.00 0.05 0.01 0.00 0.00 0.01 0.02 0.03 0.07
0.00 0.00 0.00 0.00 0.00 0.00 0.02 0.04 0.05 0.03 0.01 0.02 0.05 0.08 0.10 0.05 0.03 0.04 0.01 0.02 0.07 0.05 0.01 0.00 0.00 0.00 0.00 0.00 0.01 0.00 0.00 0.00 0.00 0.00 0.00 0.01 0.19 0.02 0.00 0.00 0.01 0.01 0.01 0.01
0.00 0.00 0.00 0.00 0.00 0.00 0.01 0.08 0.05 0.02 0.03 0.01 0.03 0.06 0.04 0.03 0.03 0.04 0.02 0.02 0.05 0.04 0.02 0.04 0.01 0.00 0.00 0.00 0.00 0.00 0.00 0.01 0.02 0.02 0.01 0.01 0.10 0.05 0.05 0.04 0.02 0.02 0.01 0.00
0.00 0.00 0.00 0.00 0.00 0.00 0.01 0.03 0.07 0.01 0.02 0.01 0.03 0.04 0.05 0.06 0.06 0.05 0.04 0.01 0.00 0.04 0.06 0.05 0.01 0.01 0.01 0.01 0.00 0.01 0.01 0.01 0.03 0.02 0.03 0.09 0.23 0.05 0.01 0.02 0.10 0.04 0.02 0.01
0.00 0.00 0.00 0.00 0.00 0.00 0.00 0.02 0.09 0.05 0.02 0.01 0.02 0.04 0.06 0.08 0.08 0.08 0.11 0.05 0.03 0.06 0.07 0.06 0.06 0.09 0.09 0.09 0.04 0.02 0.05 0.05 0.02 0.03 0.03 0.05 0.05 0.03 0.01 0.16 0.25 0.04 0.02 0.01
0.00 0.00 0.00 0.00 0.00 0.00 0.00 0.01 0.02 0.02 0.02 0.00 0.01 0.03 0.02 0.05 0.08 0.09 0.11 0.06 0.09 0.05 0.08 0.09 0.09 0.13 0.20 0.20 0.13 0.06 0.06 0.11 0.09 0.15 0.18 0.17 0.03 0.02 0.11 0.26 0.07 0.00 0.00 0.00
0.00 0.00 0.00 0.00 0.00 0.00 0.00 0.01 0.02 0.02 0.03 0.00 0.00 0.00 0.01 0.05 0.07 0.06 0.03 0.07 0.07 0.05 0.04 0.07 0.07 0.11 0.28 0.25 0.21 0.12 0.08 0.15 0.14 0.23 0.30 0.14 0.03 0.04 0.01 0.00 0.00 0.00 0.00 0.00
0.00 0.00 0.00 0.00 0.00 0.00 0.00 0.00 0.02 0.03 0.01 0.00 0.02 0.04 0.01 0.00 0.02 0.03 0.03 0.05 0.05 0.05 0.04 0.03 0.05 0.19 0.18 0.20 0.20 0.17 0.06 0.08 0.08 0.29 0.20 0.09 0.12 0.07 0.01 0.00 0.00 0.00 0.00 0.00
0.00 0.00 0.00 0.00 0.00 0.00 0.00 0.00 0.01 0.02 0.02 0.02 0.01 0.00 0.02 0.00 0.01 0.02 0.01 0.04 0.05 0.04 0.04 0.05 0.05 0.07 0.04 0.03 0.04 0.03 0.06 0.04 0.05 0.08 0.13 0.15 0.07 0.03 0.01 0.00 0.00 0.00 0.00 0.00
0.00 0.00 0.00 0.00 0.00 0.00 0.00 0.00 0.01 0.00 0.01 0.01 0.00 0.01 0.01 0.00 0.00 0.01 0.02 0.03 0.03 0.01 0.03 0.03 0.03 0.03 0.01 0.01 0.02 0.01 0.00 0.00 0.01 0.03 0.03 0.02 0.01 0.00 0.00 0.00 0.00 0.00 0.00 0.00
0.00 0.00 0.00 0.00 0.00 0.00 0.01 0.01 0.03 0.00 0.01 0.04 0.01 0.01 0.00 0.00 0.01 0.01 0.02 0.01 0.01 0.01 0.01 0.02 0.04 0.02 0.01 0.00 0.00 0.00 0.00 0.00 0.00 0.00 0.00 0.00 0.00 0.00 0.00 0.00 0.00 0.00 0.00 0.00
0.00 0.00 0.00 0.00 0.00 0.00 0.02 0.03 0.03 0.00 0.01 0.04 0.02 0.02 0.01 0.00 0.01 0.05 0.05 0.02 0.01 0.00 0.01 0.02 0.04 0.04 0.03 0.01 0.01 0.01 0.00 0.00 0.00 0.00 0.00 0.00 0.00 0.00 0.00 0.00 0.00 0.00 0.00 0.00
0.00 0.00 0.00 0.00 0.00 0.00 0.01 0.00 0.00 0.00 0.00 0.03 0.04 0.00 0.02 0.00 0.03 0.07 0.04 0.08 0.05 0.03 0.03 0.03 0.02 0.02 0.06 0.05 0.01 0.00 0.00 0.00 0.00 0.01 0.01 0.01 0.00 0.00 0.00 0.00 0.00 0.00 0.00 0.00
0.00 0.00 0.00 0.00 0.00 0.03 0.02 0.00 0.00 0.00 0.01 0.03 0.01 0.01 0.03 0.01 0.01 0.03 0.05 0.06 0.06 0.05 0.03 0.02 0.01 0.02 0.04 0.05 0.01 0.00 0.00 0.01 0.05 0.07 0.03 0.00 0.00 0.00 0.00 0.00 0.00 0.00 0.00 0.00
0.00 0.00 0.00 0.01 0.01 0.00 0.00 0.01 0.02 0.02 0.03 0.02 0.01 0.01 0.02 0.02 0.02 0.05 0.05 0.04 0.03 0.02 0.01 0.00 0.00 0.01 0.05 0.01 0.00 0.00 0.01 0.02 0.00 0.00 0.00 0.00 0.00 0.00 0.00 0.00 0.00 0.00 0.00 0.00
0.00 0.00 0.00 0.00 0.00 0.00 0.01 0.01 0.02 0.01 0.02 0.01 0.00 0.01 0.02 0.01 0.01 0.01 0.01 0.01 0.00 0.00 0.01 0.00 0.00 0.06 0.07 0.00 0.00 0.00 0.00 0.00 0.00 0.00 0.00 0.00 0.00 0.00 0.00 0.00 0.00 0.00 0.00 0.00
0.00 0.00 0.00 0.00 0.00 0.01 0.02 0.02 0.01 0.00 0.00 0.00 0.01 0.02 0.01 0.00 0.00 0.00 0.01 0.01 0.00 0.00 0.01 0.01 0.01 0.05 0.02 0.00 0.00 0.00 0.00 0.00 0.00 0.00 0.00 0.00 0.00 0.00 0.00 0.00 0.00 0.00 0.00 0.00
0.00 0.00 0.00 0.01 0.00 0.01 0.01 0.00 0.00 0.00 0.00 0.00 0.00 0.01 0.00 0.00 0.01 0.01 0.01 0.00 0.00 0.01 0.01 0.01 0.03 0.04 0.00 0.00 0.00 0.00 0.00 0.00 0.00 0.00 0.00 0.00 0.00 0.00 0.00 0.00 0.00 0.00 0.00 0.00
0.01 0.00 0.00 0.00 0.00 0.00 0.00 0.00 0.00 0.00 0.00 0.00 0.00 0.01 0.01 0.01 0.01 0.00 0.00 0.00 0.01 0.01 0.00 0.01 0.06 0.01 0.00 0.00 0.00 0.00 0.00 0.00 0.00 0.00 0.00 0.00 0.00 0.00 0.00 0.00 0.00 0.00 0.00 0.00
0.00 0.00 0.00 0.00 0.00 0.00 0.00 0.00 0.00 0.00 0.00 0.00 0.01 0.01 0.01 0.01 0.01 0.00 0.00 0.01 0.01 0.00 0.01 0.06 0.01 0.00 0.00 0.00 0.00 0.00 0.00 0.00 0.00 0.00 0.00 0.00 0.00 0.00 0.00 0.00 0.00 0.00 0.00 0.00
0.00 0.00 0.00 0.00 0.00 0.00 0.00 0.00 0.00 0.00 0.00 0.00 0.01 0.00 0.01 0.00 0.00 0.01 0.00 0.00 0.00 0.01 0.05 0.02 0.00 0.00 0.00 0.00 0.00 0.00 0.00 0.00 0.00 0.00 0.00 0.00 0.00 0.00 0.00 0.00 0.00 0.00 0.00 0.00
0.00 0.00 0.00 0.00 0.00 0.00 0.00 0.00 0.00 0.00 0.00 0.01 0.01 0.01 0.00 0.01 0.01 0.00 0.00 0.00 0.02 0.03 0.04 0.00 0.00 0.00 0.00 0.00 0.00 0.00 0.00 0.00 0.00 0.01 0.00 0.00 0.00 0.00 0.00 0.01 0.00 0.00 0.00 0.00

GFSNW_prec_precacc12_237.txt.gz
Total_Precipitation_Accumulation
0.00 0.00 0.00 0.00 0.00 0.00 0.00 0.00 0.00 0.00 0.00 0.00 0.00 0.00 0.00 0.00 0.00 0.00 0.00 0.01 0.00 0.01 0.00 0.00 0.00 0.02 0.04 0.04 0.09 0.06 0.11 0.34 0.06 0.04 0.06 0.16 0.25 0.42 0.60 0.70 0.82 0.71 0.41 0.55
0.00 0.00 0.00 0.00 0.00 0.00 0.00 0.00 0.00 0.00 0.00 0.00 0.00 0.00 0.00 0.00 0.00 0.00 0.00 0.00 0.01 0.01 0.01 0.03 0.02 0.01 0.02 0.06 0.07 0.23 0.28 0.30 0.10 0.03 0.10 0.01 0.06 0.17 0.26 0.37 0.48 0.62 0.35 0.50
0.00 0.00 0.00 0.00 0.00 0.00 0.00 0.00 0.00 0.00 0.00 0.00 0.00 0.00 0.00 0.00 0.00 0.00 0.00 0.00 0.01 0.00 0.00 0.03 0.02 0.00 0.01 0.02 0.03 0.06 0.09 0.11 0.12 0.13 0.15 0.08 0.13 0.07 0.07 0.12 0.30 0.40 0.45 0.58
0.00 0.00 0.00 0.00 0.00 0.00 0.00 0.00 0.00 0.00 0.00 0.00 0.00 0.00 0.00 0.00 0.00 0.00 0.00 0.00 0.00 0.00 0.00 0.00 0.00 0.00 0.00 0.01 0.03 0.01 0.01 0.00 0.00 0.01 0.01 0.05 0.09 0.02 0.05 0.18 0.25 0.40 0.60 0.57
0.00 0.00 0.00 0.00 0.00 0.00 0.00 0.00 0.00 0.00 0.00 0.00 0.00 0.00 0.00 0.00 0.00 0.00 0.00 0.00 0.00 0.01 0.00 0.00 0.00 0.00 0.00 0.00 0.00 0.00 0.00 0.00 0.00 0.00 0.00 0.00 0.00 0.00 0.02 0.12 0.22 0.36 0.27 0.66
0.00 0.00 0.00 0.00 0.00 0.00 0.00 0.00 0.00 0.00 0.00 0.00 0.00 0.00 0.00 0.00 0.00 0.00 0.00 0.00 0.00 0.00 0.00 0.00 0.00 0.00 0.00 0.00 0.00 0.00 0.00 0.00 0.00 0.00 0.00 0.00 0.09 0.19 0.16 0.18 0.23 0.27 0.43 0.90
0.00 0.00 0.00 0.00 0.00 0.00 0.00 0.00 0.00 0.00 0.00 0.00 0.00 0.00 0.00 0.00 0.00 0.00 0.00 0.00 0.02 0.02 0.00 0.00 0.00 0.00 0.00 0.00 0.01 0.00 0.00 0.00 0.00 0.00 0.00 0.02 0.36 0.11 0.15 0.20 0.18 0.26 0.28 0.26
0.00 0.00 0.00 0.00 0.00 0.00 0.00 0.00 0.00 0.00 0.00 0.00 0.00 0.00 0.00 0.00 0.00 0.00 0.00 0.00 0.02 0.04 0.00 0.00 0.00 0.00 0.00 0.00 0.00 0.00 0.00 0.00 0.00 0.00 0.00 0.02 0.15 0.11 0.17 0.19 0.17 0.15 0.08 0.07
0.00 0.00 0.00 0.00 0.00 0.00 0.00 0.00 0.00 0.00 0.00 0.00 0.00 0.00 0.00 0.00 0.00 0.00 0.00 0.00 0.00 0.00 0.00 0.00 0.00 0.02 0.03 0.02 0.00 0.00 0.00 0.00 0.00 0.00 0.00 0.08 0.16 0.04 0.03 0.09 0.16 0.10 0.02 0.01
0.00 0.00 0.00 0.00 0.00 0.00 0.00 0.00 0.00 0.00 0.00 0.00 0.00 0.00 0.00 0.00 0.00 0.00 0.00 0.00 0.00 0.00 0.00 0.00 0.01 0.06 0.09 0.12 0.05 0.00 0.00 0.01 0.00 0.01 0.01 0.01 0.01 0.02 0.01 0.24 0.26 0.04 0.02 0.01
0.00 0.00 0.00 0.00 0.00 0.00 0.00 0.00 0.00 0.00 0.00 0.00 0.00 0.00 0.00 0.00 0.01 0.00 0.00 0.00 0.00 0.00 0.00 0.00 0.00 0.06 0.13 0.14 0.11 0.03 0.05 0.06 0.01 0.02 0.07 0.09 0.01 0.01 0.09 0.20 0.05 0.00 0.00 0.00
0.00 0.00 0.00 0.00 0.00 0.00 0.00 0.00 0.00 0.00 0.00 0.00 0.00 0.00 0.00 0.00 0.00 0.00 0.00 0.00 0.00 0.00 0.00 0.00 0.00 0.01 0.08 0.07 0.06 0.02 0.04 0.12 0.10 0.10 0.08 0.06 0.03 0.03 0.01 0.00 0.00 0.00 0.00 0.00
0.00 0.00 0.00 0.00 0.00 0.00 0.00 0.00 0.00 0.00 0.00 0.00 0.00 0.00 0.00 0.00 0.00 0.00 0.00 0.00 0.00 0.00 0.00 0.00 0.00 0.00 0.00 0.01 0.03 0.00 0.00 0.00 0.02 0.20 0.11 0.01 0.07 0.04 0.01 0.00 0.00 0.00 0.00 0.00
0.00 0.00 0.00 0.00 0.00 0.00 0.00 0.00 0.00 0.00 0.00 0.00 0.00 0.00 0.00 0.00 0.00 0.00 0.00 0.00 0.00 0.00 0.00 0.00 0.00 0.00 0.00 0.00 0.01 0.00 0.00 0.00 0.00 0.01 0.03 0.01 0.01 0.00 0.00 0.00 0.00 0.00 0.00 0.00
0.00 0.00 0.00 0.00 0.00 0.00 0.00 0.00 0.00 0.00 0.00 0.00 0.00 0.00 0.00 0.00 0.00 0.00 0.00 0.00 0.00 0.00 0.00 0.00 0.00 0.00 0.00 0.01 0.01 0.00 0.00 0.00 0.00 0.00 0.00 0.00 0.00 0.00 0.00 0.00 0.00 0.00 0.00 0.00
0.00 0.00 0.00 0.00 0.00 0.00 0.00 0.00 0.00 0.00 0.00 0.00 0.00 0.00 0.00 0.00 0.00 0.00 0.00 0.00 0.00 0.00 0.00 0.00 0.00 0.00 0.00 0.00 0.00 0.00 0.00 0.00 0.00 0.00 0.00 0.00 0.00 0.00 0.00 0.00 0.00 0.00 0.00 0.00
0.00 0.00 0.00 0.00 0.00 0.00 0.00 0.00 0.00 0.00 0.00 0.00 0.00 0.00 0.00 0.00 0.00 0.00 0.00 0.00 0.00 0.00 0.00 0.00 0.00 0.00 0.00 0.00 0.00 0.00 0.00 0.00 0.00 0.00 0.00 0.00 0.00 0.00 0.00 0.00 0.00 0.00 0.00 0.00
0.00 0.00 0.00 0.00 0.00 0.00 0.00 0.00 0.00 0.00 0.00 0.00 0.00 0.00 0.00 0.00 0.00 0.00 0.00 0.00 0.00 0.00 0.00 0.00 0.00 0.00 0.00 0.00 0.00 0.00 0.00 0.00 0.00 0.00 0.00 0.00 0.00 0.00 0.00 0.00 0.00 0.00 0.00 0.00
0.00 0.00 0.00 0.00 0.00 0.00 0.00 0.00 0.00 0.00 0.00 0.00 0.00 0.00 0.00 0.00 0.00 0.00 0.00 0.00 0.00 0.00 0.00 0.00 0.00 0.00 0.00 0.00 0.00 0.00 0.00 0.00 0.00 0.00 0.00 0.00 0.00 0.00 0.00 0.00 0.00 0.00 0.00 0.00
0.00 0.00 0.00 0.00 0.00 0.00 0.00 0.00 0.00 0.00 0.00 0.00 0.00 0.00 0.00 0.00 0.00 0.00 0.00 0.00 0.00 0.00 0.00 0.00 0.00 0.00 0.00 0.00 0.00 0.00 0.00 0.00 0.00 0.00 0.00 0.00 0.00 0.00 0.00 0.00 0.00 0.00 0.00 0.00
0.00 0.00 0.00 0.00 0.00 0.00 0.00 0.00 0.00 0.00 0.01 0.00 0.00 0.00 0.00 0.00 0.00 0.00 0.00 0.00 0.00 0.00 0.00 0.00 0.00 0.00 0.00 0.00 0.00 0.00 0.00 0.00 0.00 0.00 0.00 0.00 0.00 0.00 0.00 0.00 0.00 0.00 0.00 0.00
0.00 0.00 0.00 0.00 0.00 0.00 0.00 0.01 0.01 0.00 0.00 0.00 0.00 0.00 0.00 0.00 0.00 0.00 0.00 0.00 0.00 0.00 0.00 0.00 0.00 0.00 0.00 0.00 0.00 0.00 0.00 0.00 0.00 0.00 0.00 0.00 0.00 0.00 0.00 0.00 0.00 0.00 0.00 0.00
0.00 0.00 0.00 0.00 0.00 0.00 0.00 0.00 0.00 0.00 0.00 0.00 0.00 0.00 0.00 0.00 0.00 0.00 0.00 0.00 0.00 0.00 0.00 0.00 0.00 0.00 0.00 0.00 0.00 0.00 0.00 0.00 0.00 0.00 0.00 0.00 0.00 0.00 0.00 0.00 0.00 0.00 0.00 0.00
0.00 0.00 0.00 0.00 0.00 0.00 0.00 0.00 0.00 0.00 0.00 0.00 0.00 0.00 0.00 0.00 0.00 0.00 0.00 0.00 0.00 0.00 0.00 0.00 0.00 0.00 0.00 0.00 0.00 0.00 0.00 0.00 0.00 0.00 0.00 0.00 0.00 0.00 0.00 0.00 0.00 0.00 0.00 0.00
0.00 0.00 0.00 0.00 0.00 0.00 0.00 0.00 0.00 0.00 0.00 0.00 0.00 0.00 0.00 0.00 0.00 0.00 0.00 0.00 0.00 0.00 0.00 0.00 0.00 0.00 0.00 0.00 0.00 0.00 0.00 0.00 0.00 0.00 0.00 0.00 0.00 0.00 0.00 0.00 0.00 0.00 0.00 0.00
0.00 0.00 0.00 0.00 0.00 0.00 0.00 0.00 0.00 0.00 0.00 0.00 0.00 0.00 0.00 0.00 0.00 0.00 0.00 0.00 0.00 0.00 0.00 0.00 0.00 0.00 0.00 0.00 0.00 0.00 0.00 0.00 0.00 0.00 0.00 0.00 0.00 0.00 0.00 0.00 0.00 0.00 0.00 0.00
0.00 0.00 0.00 0.00 0.00 0.00 0.00 0.00 0.00 0.00 0.00 0.00 0.00 0.00 0.00 0.00 0.00 0.00 0.00 0.00 0.00 0.00 0.00 0.00 0.00 0.00 0.00 0.00 0.00 0.00 0.00 0.00 0.00 0.00 0.00 0.00 0.00 0.00 0.00 0.00 0.00 0.00 0.00 0.00

GFSNW_prec_precacc12_240.txt.gz
Total_Precipitation_Accumulation
0.04 0.03 0.01 0.01 0.00 0.00 0.00 0.00 0.00 0.00 0.00 0.00 0.00 0.00 0.00 0.00 0.00 0.00 0.00 0.00 0.00 0.01 0.00 0.00 0.00 0.01 0.01 0.01 0.03 0.03 0.11 0.34 0.06 0.01 0.04 0.08 0.15 0.38 0.63 0.85 0.67 0.61 0.30 0.51
0.02 0.02 0.00 0.00 0.00 0.00 0.00 0.00 0.00 0.00 0.00 0.00 0.00 0.00 0.00 0.00 0.00 0.00 0.00 0.00 0.00 0.00 0.00 0.01 0.00 0.00 0.00 0.01 0.01 0.12 0.23 0.20 0.07 0.01 0.08 0.01 0.03 0.21 0.31 0.35 0.45 0.65 0.35 0.61
0.01 0.00 0.00 0.00 0.00 0.00 0.00 0.00 0.00 0.00 0.00 0.00 0.00 0.00 0.00 0.00 0.00 0.00 0.00 0.00 0.00 0.00 0.00 0.01 0.00 0.00 0.00 0.00 0.00 0.02 0.05 0.02 0.04 0.09 0.11 0.08 0.25 0.10 0.14 0.15 0.45 0.50 0.57 0.71
0.01 0.00 0.00 0.00 0.00 0.00 0.00 0.00 0.00 0.00 0.00 0.00 0.00 0.00 0.00 0.00 0.00 0.00 0.00 0.00 0.00 0.00 0.00 0.00 0.00 0.00 0.00 0.00 0.00 0.01 0.00 0.00 0.00 0.00 0.01 0.07 0.18 0.08 0.13 0.33 0.38 0.57 0.76 0.71
0.00 0.00 0.00 0.00 0.00 0.00 0.00 0.00 0.00 0.00 0.00 0.00 0.00 0.00 0.00 0.00 0.00 0.00 0.00 0.00 0.00 0.00 0.00 0.00 0.00 0.00 0.00 0.00 0.00 0.00 0.00 0.00 0.00 0.00 0.00 0.00 0.01 0.03 0.06 0.19 0.33 0.52 0.32 0.88
0.00 0.00 0.00 0.00 0.00 0.00 0.00 0.00 0.00 0.00 0.00 0.00 0.00 0.00 0.00 0.00 0.00 0.00 0.00 0.00 0.00 0.00 0.00 0.00 0.00 0.00 0.00 0.00 0.00 0.00 0.00 0.00 0.00 0.00 0.00 0.00 0.11 0.34 0.21 0.22 0.28 0.31 0.54 1.10
0.00 0.00 0.00 0.00 0.00 0.00 0.00 0.00 0.00 0.00 0.00 0.00 0.00 0.00 0.00 0.00 0.00 0.00 0.00 0.00 0.00 0.00 0.00 0.00 0.00 0.00 0.00 0.00 0.01 0.00 0.00 0.00 0.00 0.00 0.00 0.02 0.37 0.15 0.24 0.22 0.21 0.29 0.30 0.29
0.00 0.00 0.00 0.00 0.00 0.00 0.00 0.00 0.00 0.00 0.00 0.00 0.00 0.00 0.00 0.00 0.00 0.00 0.00 0.00 0.00 0.00 0.00 0.00 0.00 0.00 0.00 0.00 0.00 0.00 0.00 0.00 0.00 0.00 0.01 0.03 0.15 0.11 0.21 0.21 0.19 0.15 0.08 0.07
0.00 0.00 0.00 0.00 0.00 0.00 0.00 0.00 0.00 0.00 0.00 0.00 0.00 0.00 0.00 0.00 0.00 0.00 0.00 0.00 0.00 0.00 0.00 0.00 0.00 0.02 0.03 0.02 0.00 0.00 0.00 0.00 0.00 0.00 0.01 0.09 0.10 0.01 0.04 0.16 0.13 0.07 0.02 0.01
0.00 0.00 0.00 0.00 0.00 0.00 0.00 0.00 0.00 0.00 0.00 0.00 0.00 0.00 0.00 0.00 0.00 0.00 0.00 0.00 0.00 0.00 0.00 0.00 0.01 0.05 0.08 0.11 0.05 0.00 0.00 0.00 0.00 0.00 0.01 0.01 0.00 0.00 0.01 0.19 0.12 0.02 0.02 0.01
0.00 0.00 0.00 0.00 0.00 0.00 0.00 0.00 0.00 0.00 0.00 0.00 0.00 0.00 0.00 0.00 0.00 0.00 0.00 0.00 0.00 0.00 0.00 0.00 0.00 0.01 0.03 0.08 0.06 0.01 0.05 0.06 0.01 0.00 0.02 0.06 0.01 0.01 0.05 0.12 0.04 0.00 0.00 0.00
0.00 0.00 0.00 0.00 0.00 0.00 0.00 0.00 0.00 0.00 0.00 0.00 0.00 0.00 0.00 0.00 0.00 0.00 0.00 0.00 0.00 0.00 0.00 0.00 0.00 0.00 0.00 0.00 0.00 0.00 0.00 0.05 0.05 0.09 0.05 0.03 0.01 0.01 0.01 0.00 0.01 0.00 0.00 0.00
0.00 0.00 0.00 0.00 0.00 0.00 0.00 0.00 0.00 0.00 0.00 0.00 0.00 0.00 0.00 0.00 0.00 0.00 0.00 0.00 0.00 0.00 0.00 0.00 0.00 0.00 0.00 0.00 0.00 0.00 0.00 0.00 0.01 0.03 0.01 0.00 0.01 0.00 0.00 0.00 0.00 0.00 0.00 0.00
0.00 0.00 0.00 0.00 0.00 0.00 0.00 0.00 0.00 0.00 0.00 0.00 0.00 0.00 0.00 0.00 0.00 0.00 0.00 0.00 0.00 0.00 0.00 0.00 0.00 0.00 0.00 0.00 0.00 0.00 0.00 0.00 0.00 0.00 0.00 0.00 0.00 0.00 0.00 0.00 0.00 0.00 0.00 0.00
0.00 0.00 0.00 0.00 0.00 0.00 0.00 0.00 0.00 0.00 0.00 0.00 0.00 0.00 0.00 0.00 0.00 0.00 0.00 0.00 0.00 0.00 0.00 0.00 0.00 0.00 0.00 0.00 0.00 0.00 0.00 0.00 0.00 0.00 0.00 0.00 0.00 0.00 0.00 0.00 0.00 0.00 0.00 0.00
0.00 0.00 0.00 0.00 0.00 0.00 0.00 0.00 0.00 0.00 0.00 0.00 0.00 0.00 0.00 0.00 0.00 0.00 0.00 0.00 0.00 0.00 0.00 0.00 0.00 0.00 0.00 0.00 0.00 0.00 0.00 0.00 0.00 0.00 0.00 0.00 0.00 0.00 0.00 0.00 0.00 0.00 0.00 0.00
0.00 0.00 0.00 0.00 0.00 0.00 0.00 0.00 0.00 0.00 0.00 0.00 0.00 0.00 0.00 0.00 0.00 0.00 0.00 0.00 0.00 0.00 0.00 0.00 0.00 0.00 0.00 0.00 0.00 0.00 0.00 0.00 0.00 0.00 0.00 0.00 0.00 0.00 0.00 0.00 0.00 0.00 0.00 0.00
0.00 0.00 0.00 0.00 0.00 0.00 0.00 0.00 0.00 0.00 0.00 0.00 0.00 0.00 0.00 0.00 0.00 0.00 0.00 0.00 0.00 0.00 0.00 0.00 0.00 0.00 0.00 0.00 0.00 0.00 0.00 0.00 0.00 0.00 0.00 0.00 0.00 0.00 0.00 0.00 0.00 0.00 0.00 0.00
0.00 0.00 0.00 0.00 0.00 0.00 0.00 0.00 0.00 0.00 0.00 0.00 0.00 0.00 0.00 0.00 0.00 0.00 0.00 0.00 0.00 0.00 0.00 0.00 0.00 0.00 0.00 0.00 0.00 0.00 0.00 0.00 0.00 0.00 0.00 0.00 0.00 0.00 0.00 0.00 0.00 0.00 0.00 0.00
0.00 0.00 0.00 0.00 0.00 0.00 0.00 0.00 0.00 0.00 0.00 0.00 0.00 0.00 0.00 0.00 0.00 0.00 0.00 0.00 0.00 0.00 0.00 0.00 0.00 0.00 0.00 0.00 0.00 0.00 0.00 0.00 0.00 0.00 0.00 0.00 0.00 0.00 0.00 0.00 0.00 0.00 0.00 0.00
0.00 0.00 0.00 0.00 0.00 0.00 0.00 0.00 0.00 0.00 0.01 0.00 0.00 0.00 0.00 0.00 0.00 0.00 0.00 0.00 0.00 0.00 0.00 0.00 0.00 0.00 0.00 0.00 0.00 0.00 0.00 0.00 0.00 0.00 0.00 0.00 0.00 0.00 0.00 0.00 0.00 0.00 0.00 0.00
0.00 0.00 0.00 0.00 0.00 0.00 0.00 0.01 0.01 0.00 0.00 0.00 0.00 0.00 0.00 0.00 0.00 0.00 0.00 0.00 0.00 0.00 0.00 0.00 0.00 0.00 0.00 0.00 0.00 0.00 0.00 0.00 0.00 0.00 0.00 0.00 0.00 0.00 0.00 0.00 0.00 0.00 0.00 0.00
0.00 0.00 0.00 0.00 0.00 0.00 0.00 0.01 0.00 0.00 0.00 0.00 0.00 0.00 0.00 0.00 0.00 0.00 0.00 0.00 0.00 0.00 0.00 0.00 0.00 0.00 0.00 0.00 0.00 0.00 0.00 0.00 0.00 0.00 0.00 0.00 0.00 0.00 0.00 0.00 0.00 0.00 0.00 0.00
0.00 0.00 0.00 0.00 0.00 0.00 0.00 0.00 0.00 0.00 0.00 0.00 0.00 0.00 0.00 0.00 0.00 0.00 0.00 0.00 0.00 0.00 0.00 0.00 0.00 0.00 0.00 0.00 0.00 0.00 0.00 0.00 0.00 0.00 0.00 0.00 0.00 0.00 0.00 0.00 0.00 0.00 0.00 0.00
0.00 0.00 0.00 0.00 0.00 0.00 0.00 0.00 0.00 0.00 0.00 0.00 0.00 0.00 0.00 0.00 0.00 0.00 0.00 0.00 0.00 0.00 0.00 0.00 0.00 0.00 0.00 0.00 0.00 0.00 0.00 0.00 0.00 0.00 0.00 0.00 0.00 0.00 0.00 0.00 0.00 0.00 0.00 0.00
0.00 0.00 0.00 0.00 0.00 0.00 0.00 0.00 0.00 0.00 0.00 0.00 0.00 0.00 0.00 0.00 0.00 0.00 0.00 0.00 0.00 0.00 0.00 0.00 0.00 0.00 0.00 0.00 0.00 0.00 0.00 0.00 0.00 0.00 0.00 0.00 0.00 0.00 0.00 0.00 0.00 0.00 0.00 0.00
0.00 0.00 0.00 0.00 0.00 0.00 0.00 0.00 0.00 0.00 0.00 0.00 0.00 0.00 0.00 0.00 0.00 0.00 0.00 0.00 0.00 0.00 0.00 0.00 0.00 0.00 0.00 0.00 0.00 0.00 0.00 0.00 0.00 0.00 0.00 0.00 0.00 0.00 0.00 0.00 0.00 0.00 0.00 0.00